EW5297 Weather Reports


time (UTC)temp
C
wind
direction
speed
KPH
gust
KPH
rain 1hr
cm
rain 24hr
cm
rain mn
cm
humidity
%
barometer
mb
20260510044816 20 176 6.4 11.3 0.00 0.00 0.00 64
20260510043313 21 150 3.2 6.4 0.00 0.00 0.00 63
20260510041816 21 153 3.2 12.9 0.00 0.00 0.00 62
20260510040312 21 138 3.2 9.7 0.00 0.00 0.00 61
20260510034828 21 144 3.2 6.4 0.00 0.00 0.00 61
20260510033328 21 155 3.2 14.5 0.00 0.00 0.00 59
20260510031824 21 159 3.2 8.0 0.00 0.00 0.00 59
20260510030325 21 137 3.2 6.4 0.00 0.00 0.00 60
20260510024822 21 167 3.2 8.0 0.00 0.00 0.00 60
20260510023321 21 143 3.2 8.0 0.00 0.00 0.00 61
20260510021825 21 39 1.6 4.8 0.00 0.00 0.00 62
20260510020324 21 140 3.2 8.0 0.00 0.00 0.00 62
20260510014828 21 141 1.6 12.9 0.00 0.00 0.00 60
20260510013347 21 144 4.8 12.9 0.00 0.00 0.00 60
20260510011826 20 138 3.2 6.4 0.00 0.00 0.00 63
20260510010330 20 215 1.6 8.0 0.00 0.00 0.00 66
20260510004828 20 156 1.6 4.8 0.00 0.00 0.00 67
20260510003311 19 134 3.2 11.3 0.00 0.00 0.00 68
20260510001852 18 144 1.6 6.4 0.00 0.00 0.00 74
20260510000329 18 146 1.6 4.8 0.00 0.00 0.00 81
20260509234852 16 144 1.6 4.8 0.00 0.00 0.00 92
20260509233328 16 57 0.0 0.0 0.00 0.00 0.00 94
20260509231826 15 57 0.0 0.0 0.00 0.00 0.00 94
20260509230328 15 57 0.0 1.6 0.00 0.00 0.00 94
20260509224827 14 360 0.0 0.0 0.00 0.00 0.00 94
20260509223348 13 360 0.0 0.0 0.00 0.00 0.00 94
20260509221825 13 360 1.6 3.2 0.00 0.00 0.00 94
20260509220322 12 21 0.0 0.0 0.00 0.00 0.00 94
20260509214846 12 21 0.0 0.0 0.00 0.00 0.00 94
20260509213322 12 349 0.0 0.0 0.00 0.00 0.00 93
20260509211817 12 349 0.0 0.0 0.00 0.00 0.00 93
20260509210316 12 349 0.0 0.0 0.00 0.00 0.00 93
20260509204813 11 349 0.0 0.0 0.00 0.00 0.00 93
20260509203312 12 349 0.0 0.0 0.00 0.00 0.00 93
20260509201851 12 349 0.0 0.0 0.00 0.00 0.00 93
20260509200325 12 349 0.0 0.0 0.00 0.00 0.00 93
20260509194829 12 349 0.0 0.0 0.00 0.00 0.00 94
20260509193325 11 349 0.0 0.0 0.00 0.00 0.00 93
20260509191823 11 349 0.0 0.0 0.00 0.00 0.00 93
20260509190342 11 349 0.0 0.0 0.00 0.00 0.00 93
20260509184820 11 349 0.0 0.0 0.00 0.00 0.00 93
20260509183322 11 349 0.0 0.0 0.00 0.00 0.00 93
20260509181819 11 349 0.0 0.0 0.00 0.00 0.00 93
20260509180318 11 349 0.0 0.0 0.00 0.00 0.00 93
20260509174820 11 349 0.0 0.0 0.00 0.00 0.00 93
20260509173338 11 349 0.0 0.0 0.00 0.00 0.00 93
20260509171819 11 349 0.0 0.0 0.00 0.00 0.00 93
20260509170317 11 349 0.0 0.0 0.00 0.00 0.00 93
20260509164814 11 349 0.0 0.0 0.00 0.00 0.00 93
20260509163335 11 349 0.0 0.0 0.00 0.00 0.00 93
20260509161812 11 349 0.0 0.0 0.00 0.00 0.00 93
20260509160311 11 349 0.0 0.0 0.00 0.00 0.00 93
20260509154836 11 349 0.0 0.0 0.00 0.00 0.00 92
20260509153337 11 349 0.0 0.0 0.00 0.00 0.00 92
20260509151840 11 349 0.0 0.0 0.00 0.00 0.00 92
20260509150321 11 349 0.0 0.0 0.00 0.00 0.00 92
20260509144817 11 349 0.0 0.0 0.00 0.00 0.00 92
20260509143319 11 349 0.0 0.0 0.00 0.00 0.00 93
20260509141839 11 349 0.0 0.0 0.00 0.00 0.00 93
20260509140318 11 349 0.0 0.0 0.00 0.00 0.00 92
20260509134818 11 349 0.0 0.0 0.00 0.00 0.00 92
20260509133313 11 349 0.0 0.0 0.00 0.00 0.00 92
20260509131815 11 349 0.0 3.2 0.00 0.00 0.00 92
20260509130313 11 349 0.0 3.2 0.00 0.00 0.00 92
20260509124811 11 349 0.0 1.6 0.00 0.00 0.00 91
20260509123333 11 349 0.0 0.0 0.00 0.00 0.00 91
20260509121830 11 349 0.0 0.0 0.00 0.00 0.00 91
20260509120324 11 349 0.0 0.0 0.00 0.00 0.00 91
20260509114824 11 349 0.0 0.0 0.00 0.00 0.00 91
20260509113322 11 349 0.0 0.0 0.00 0.00 0.00 91
20260509111823 11 349 0.0 0.0 0.00 0.00 0.00 91
20260509110321 11 349 0.0 0.0 0.00 0.00 0.00 91
20260509104818 11 349 0.0 0.0 0.00 0.00 0.00 90
20260509103319 11 349 0.0 0.0 0.00 0.00 0.00 90
20260509101816 11 349 0.0 0.0 0.00 0.00 0.00 90
20260509100317 12 349 0.0 0.0 0.00 0.00 0.00 90
20260509094813 12 349 0.0 3.2 0.00 0.00 0.00 90
20260509093311 12 349 0.0 1.6 0.00 0.00 0.00 89
20260509091811 12 349 0.0 3.2 0.00 0.00 0.00 89
20260509090309 12 349 0.0 0.0 0.00 0.00 0.00 89
20260509084826 12 349 0.0 0.0 0.00 0.00 0.00 88
20260509083328 12 349 0.0 0.0 0.00 0.00 0.00 88
20260509081826 13 349 0.0 0.0 0.00 0.00 0.00 87
20260509080327 13 349 0.0 0.0 0.00 0.00 0.00 87
20260509074845 13 349 1.6 1.6 0.00 0.00 0.00 85
20260509073321 13 349 0.0 1.6 0.00 0.00 0.00 84
20260509071819 14 349 1.6 1.6 0.00 0.00 0.00 83
20260509070317 15 349 1.6 1.6 0.00 0.00 0.00 81
20260509064814 16 349 1.6 1.6 0.00 0.00 0.00 78
20260509063335 17 349 1.6 3.2 0.00 0.00 0.00 74
20260509061833 18 161 0.0 3.2 0.00 0.00 0.00 71
20260509060312 19 161 0.0 0.0 0.00 0.00 0.00 68
20260509054830 19 161 0.0 3.2 0.00 0.00 0.00 63
20260509053326 20 165 0.0 3.2 0.00 0.00 0.00 62
20260509051828 20 165 0.0 4.8 0.00 0.00 0.00 61
20260509050346 20 145 3.2 6.4 0.00 0.00 0.00 60